Hourly Data Report for September 16, 2017

All times are specified in Local Standard Time (LST). Add 1 hour to adjust for Daylight Saving Time where and when it is observed.

KUGAARUK CLIMATE
NUNAVUT

68°32'15.060" N
89°47'47.020" W
15.80 m
2303094
71407
NBB

Download Data

Hourly Data (September 2017)
Hourly Data Report for September 16, 2017
Temp Definition
°C
Dew Point Temp Definition
°C
Rel Hum Definition
%
Wind Dir Definition
10's deg

Wind Spd Definition
km/h
Visibility Definition
km
Stn Press Definition
kPa
Hmdx Definition


Wind Chill Definition


Weather Definition


TIME
00:00 0.0 -1.0 93 26 7   101.18   -2 LegendNANA
01:00 -0.7 -1.7 93 25 9   101.22   -4 LegendNANA
02:00 -0.8 -1.6 94 25 7   101.25   -3 LegendNANA
03:00 0.8 -0.4 92 24 10   101.28     LegendNANA
04:00 0.6 -0.5 92 24 9   101.31     LegendNANA
05:00 1.3 -0.1 90 24 19   101.34     LegendNANA
06:00 1.8 -0.1 88 22 22   101.37     LegendNANA
07:00 1.6 0.8 94 24 19   101.40     LegendNANA
08:00 2.6 1.1 90 23 17   101.43     LegendNANA
09:00 2.7 1.3 91 23 16   101.49     LegendNANA
10:00 3.2 2.0 92 26 14   101.49     LegendNANA
11:00 3.4 2.1 92 24 12   101.53     LegendNANA
12:00 3.5 2.4 92 26 14   101.56     LegendNANA
13:00 3.5 2.1 90 30 15   101.60     LegendNANA
14:00 2.2 1.0 91 1 10   101.65     LegendNANA
15:00 2.1 1.2 93 1 13   101.71     LegendNANA
16:00 1.2 0.2 93 1 15   101.76     LegendNANA
17:00 0.4 -0.9 91 2 12   101.81     LegendNANA
18:00 -0.3 -1.9 89 4 8   101.82   -3 LegendNANA
19:00 -1.1 -2.1 93 12 6   101.81   -3 LegendNANA
20:00 -1.7 -2.7 93 9 3   101.81   -3 LegendNANA
21:00 -0.9 -1.8 94 2 4   101.81   -2 LegendNANA
22:00 -1.0 -1.9 93 16 2   101.76   -2 LegendNANA
23:00 -0.3 -1.4 92 23 11   101.76   -4 LegendNANA

Notes on Data Quality.

Legend

  • E = Estimated
  • M = Missing
  • NA = Not Available
  • ‡ = Partner data that is not subject to review by the National Climate Archives
Date modified: